Home > Weather > Leawood > Past weeks

Flag for U.S.A. Weather for the Past 2 Weeks in Leawood, Kansas, U.S.A.

Now
33 °F

Mostly cloudy.


Feels Like: 22 °F
Forecast: 20 / 29 °F
Wind: 18 mph from Northwest

Location: Johnson County Executive Airport

Current Time: Feb 8, 2016 at 6:15:23 PM

Latest Report: Feb 8, 2016 at 4:53 PM


Visibility: 10 mi

Pressure: 30.10 "Hg

Humidity: 49%

Dew point: 16 °F

Location of LeawoodLocation

Historic Weather in Leawood — Graph

°F

Leawood Temperature Yesterday

Maximum temperature yesterday: 51 °F (at 1:53 PM)
Minimum temperature yesterday: 36 °F (at 12:53 AM)
Average temperature yesterday: 42 °F

High & Low Weather Summary for the Past Weeks

 TemperatureHumidityPressure
High66 °F (Jan 29, 3:53 PM)96% (Feb 2, 6:53 AM)30.45 "Hg (Feb 2, 6:53 AM)
Low18 °F (Feb 4, 3:53 AM)20% (Feb 7, 4:53 PM)29.35 "Hg (Feb 2, 1:53 PM)
Average38 °F65%29.99 "Hg
* Reported Jan 24 4:53 PM — Feb 8 4:53 PM, Leawood, Weather by CustomWeather, © 2016

Note: Actual official high and low records may vary slightly from our data, if they occured in-between our weather recording intervals... More about our weather records

Advertising

Leawood Weather History for the Previous 24 Hours

 ConditionsComfort  
Time TempWeatherWind HumidityBarometerVisibility
4:53 PM
Mon, Feb 8
33 °FMostly cloudy.18 mph49%30.10 "Hg10 mi
3:53 PM33 °FMostly cloudy.22 mph48%30.09 "Hg10 mi
2:53 PM32 °FMostly cloudy.21 mph54%30.07 "Hg10 mi
1:53 PM32 °FMostly cloudy.20 mph54%30.07 "Hg10 mi
12:53 PM31 °FOvercast.22 mph57%30.08 "Hg9 mi
11:53 AM31 °FOvercast.18 mph52%30.09 "Hg10 mi
10:53 AM30 °FLight snow. Overcast.22 mph59%30.09 "Hg9 mi
9:53 AM30 °FOvercast.20 mph59%30.08 "Hg10 mi
8:53 AM31 °FMostly cloudy.20 mph57%30.05 "Hg10 mi
7:53 AM31 °FPartly sunny.24 mph52%30.03 "Hg10 mi
6:53 AM31 °FMostly cloudy.20 mph73%30.03 "Hg10 mi
5:53 AM31 °FLight snow. Mostly cloudy.16 mph76%30.01 "Hg4 mi
4:53 AM34 °FMostly cloudy.16 mph54%30.00 "Hg10 mi
3:53 AM34 °FOvercast.20 mph56%30.00 "Hg9 mi
2:53 AM35 °FMostly cloudy.13 mph54%30.00 "Hg10 mi
1:53 AM35 °FOvercast.22 mph52%30.01 "Hg10 mi
12:53 AM36 °FLight snow. Overcast.20 mph64%30.01 "Hg9 mi
11:53 PM
Sun, Feb 7
36 °FOvercast.17 mph70%30.02 "Hg10 mi
10:53 PM38 °FMostly cloudy.18 mph58%30.03 "Hg10 mi
9:53 PM38 °FMostly cloudy.20 mph60%30.04 "Hg10 mi
8:53 PM39 °FOvercast.18 mph55%30.05 "Hg10 mi
7:53 PM39 °FPassing clouds.23 mph55%30.06 "Hg10 mi
6:53 PM43 °FMostly cloudy.20 mph42%30.03 "Hg10 mi
Weather by CustomWeather, © 2016

See weather overviewHow to use our weather pages